Date String (YYYY-MM-DD hh:mm:ss) UTC,Instrument flags,Ambient pressure (hPa),Sample flow (lpm),Bypass flow (lpm),Sample temperature (°C),Ambient temperature (°C),ASC tube jacket temperature (°C),LED temperature (°C),Box temperature (°C),Sample RH (%),Span deviation,Mass concentration (μg/m³),Mass concentration (μg/m³),Mass concentration (μg/m³)
DateTimeUTC,F1_M11,P_M11,Q1_M11,Q2_M11,T1_M11,T2_M11,T3_M11,T4_M11,T5_M11,U1_M11,ZSPAN_M11,X0_M11,X2_M11,X1_M11
2022-02-23 14:00:00,,0827.7,5.00,0.00,22.3,21.5,00.0,31.3,23.9,03.0,0000.0,0005.11,0003.31,0002.92
2022-02-23 14:01:00,,0827.7,5.00,0.00,22.2,21.1,00.0,31.3,23.7,03.0,0000.0,0005.14,0003.30,0002.92
2022-02-23 14:02:00,,0827.7,5.00,0.00,22.1,21.1,00.0,31.2,23.6,03.0,0000.0,0005.05,0003.31,0002.92
2022-02-23 14:03:00,,0827.7,5.01,0.00,22.2,21.9,00.0,31.3,23.9,03.0,0000.0,0005.12,0003.33,0002.92
2022-02-23 14:04:00,,0827.7,5.00,0.00,22.4,22.7,00.0,31.3,24.1,03.0,0000.0,0005.30,0003.36,0002.91
2022-02-23 14:05:00,,0827.6,5.01,0.00,22.5,23.1,00.0,31.3,24.3,03.0,0000.0,0006.55,0003.36,0002.92
2022-02-23 14:06:00,,0827.6,5.00,0.00,22.5,22.7,00.0,31.3,24.3,03.0,0000.0,0006.87,0003.39,0002.94
2022-02-23 14:07:00,,0827.5,5.00,0.00,22.4,22.1,00.0,31.3,24.1,03.0,0000.0,0007.06,0003.42,0002.95
2022-02-23 14:08:00,,0827.6,4.99,0.00,22.3,21.6,00.0,31.3,24.0,03.0,0000.0,0007.00,0003.42,0002.98
2022-02-23 14:09:00,,0827.7,4.99,0.00,22.3,21.3,00.0,31.3,23.8,03.0,0000.0,0007.08,0003.44,0002.99
2022-02-23 14:10:00,,0827.7,5.01,0.00,22.2,21.3,00.0,31.3,23.7,03.0,0000.0,0006.90,0003.43,0003.00
2022-02-23 14:11:00,,0827.7,5.01,0.00,22.3,22.0,00.0,31.3,23.9,03.0,0000.0,0006.82,0003.44,0002.99
2022-02-23 14:12:00,,0827.7,5.00,0.00,22.4,22.7,00.0,31.3,24.2,03.0,0000.0,0007.07,0003.47,0003.00
2022-02-23 14:13:00,,0827.7,5.00,0.00,22.5,23.3,00.0,31.4,24.4,03.0,0000.0,0007.31,0003.48,0002.99
2022-02-23 14:14:00,,0827.7,5.00,0.00,22.6,23.2,00.0,31.4,24.4,03.0,0000.0,0007.33,0003.47,0002.99
2022-02-23 14:15:00,,0827.7,5.00,0.00,22.6,22.7,00.0,31.4,24.3,03.0,0000.0,0007.15,0003.44,0002.98
2022-02-23 14:16:00,,0827.7,4.99,0.00,22.5,22.2,00.0,31.4,24.1,03.0,0000.0,0005.81,0003.42,0002.97
2022-02-23 14:17:00,,0827.7,5.01,0.00,22.4,21.6,00.0,31.3,23.9,03.0,0000.0,0005.75,0003.43,0002.97
2022-02-23 14:18:00,,0827.7,4.98,0.00,22.3,21.2,00.0,31.3,23.8,03.0,0000.0,0006.04,0003.40,0002.96
2022-02-23 14:19:00,,0827.7,5.00,0.00,22.2,21.1,00.0,31.3,23.7,03.0,0000.0,0006.28,0003.42,0002.96
2022-02-23 14:20:00,,0827.7,5.01,0.00,22.2,21.9,00.0,31.3,23.8,03.0,0000.0,0006.40,0003.41,0002.94
2022-02-23 14:21:00,,0827.7,4.99,0.00,22.4,22.6,00.0,31.3,24.1,03.0,0000.0,0006.46,0003.42,0002.91
2022-02-23 14:22:00,,0827.7,5.00,0.00,22.5,23.1,00.0,31.4,24.3,03.0,0000.0,0006.39,0003.40,0002.90
2022-02-23 14:23:00,,0827.7,5.00,0.00,22.5,22.6,00.0,31.4,24.3,03.0,0000.0,0006.61,0003.38,0002.89
2022-02-23 14:24:00,,0827.7,5.01,0.00,22.4,22.0,00.0,31.4,24.1,03.0,0000.0,0006.40,0003.39,0002.91
2022-02-23 14:25:00,,0827.7,5.00,0.00,22.3,21.4,00.0,31.3,23.9,03.0,0000.0,0006.42,0003.40,0002.92
2022-02-23 14:26:00,,0827.7,4.99,0.00,22.2,21.1,00.0,31.3,23.7,03.0,0000.0,0007.13,0003.43,0002.93
2022-02-23 14:27:00,,0827.8,5.00,0.00,22.2,21.6,00.0,31.3,23.8,03.0,0000.0,0007.41,0003.48,0002.96
2022-02-23 14:28:00,,0827.8,4.99,0.00,22.3,22.3,00.0,31.3,24.0,03.0,0000.0,0007.41,0003.49,0002.97
2022-02-23 14:29:00,,0827.7,5.00,0.00,22.4,23.0,00.0,31.4,24.3,03.0,0000.0,0006.97,0003.49,0002.99
2022-02-23 14:30:00,,0827.7,5.00,0.00,22.5,23.0,00.0,31.4,24.3,03.0,0000.0,0006.74,0003.48,0003.00
2022-02-23 14:31:00,,0827.7,5.01,0.00,22.5,22.3,00.0,31.4,24.2,03.0,0000.0,0006.69,0003.49,0003.02
2022-02-23 14:32:00,,0827.7,5.00,0.00,22.4,21.7,00.0,31.3,24.0,03.0,0000.0,0006.73,0003.52,0003.06
2022-02-23 14:33:00,,0827.7,5.00,0.00,22.3,21.1,00.0,31.3,23.7,03.1,0000.0,0006.59,0003.55,0003.11
2022-02-23 14:34:00,,0827.7,4.99,0.00,22.1,20.7,00.0,31.3,23.5,03.1,0000.0,0006.11,0003.58,0003.14
2022-02-23 14:35:00,,0827.8,5.00,0.00,22.1,21.3,00.0,31.3,23.6,03.1,0000.0,0006.17,0003.59,0003.15
2022-02-23 14:36:00,,0827.7,5.02,0.00,22.2,22.1,00.0,31.3,23.8,03.1,0000.0,0006.28,0003.62,0003.17
2022-02-23 14:37:00,,0827.7,5.00,0.00,22.3,22.8,00.0,31.3,24.1,03.0,0000.0,0005.77,0003.64,0003.18
2022-02-23 14:38:00,,0827.7,5.01,0.00,22.5,23.3,00.0,31.3,24.3,03.0,0000.0,0005.61,0003.63,0003.19
2022-02-23 14:39:00,,0827.7,4.99,0.00,22.5,22.7,00.0,31.3,24.2,03.0,0000.0,0005.58,0003.63,0003.21
2022-02-23 14:40:00,,0827.7,5.00,0.00,22.4,22.0,00.0,31.3,24.1,03.0,0000.0,0005.69,0003.65,0003.23
2022-02-23 14:41:00,,0827.7,5.00,0.00,22.3,21.5,00.0,31.3,23.9,03.0,0000.0,0005.68,0003.65,0003.23
2022-02-23 14:42:00,,0827.7,4.99,0.00,22.2,21.0,00.0,31.2,23.7,03.1,0000.0,0005.74,0003.66,0003.24
2022-02-23 14:43:00,,0827.7,5.00,0.00,22.1,21.0,00.0,31.2,23.5,03.1,0000.0,0005.68,0003.65,0003.24
2022-02-23 14:44:00,,0827.7,5.01,0.00,22.2,21.8,00.0,31.2,23.7,03.1,0000.0,0005.61,0003.63,0003.24
2022-02-23 14:45:00,,0827.7,4.99,0.00,22.3,22.6,00.0,31.3,24.0,03.0,0000.0,0006.31,0003.63,0003.23
2022-02-23 14:46:00,,0827.7,5.00,0.00,22.4,23.2,00.0,31.3,24.3,03.0,0000.0,0006.56,0003.62,0003.23
2022-02-23 14:47:00,,0827.6,5.00,0.00,22.5,23.2,00.0,31.4,24.4,03.0,0000.0,0006.45,0003.58,0003.21
2022-02-23 14:48:00,,0827.6,4.99,0.00,22.5,22.5,00.0,31.3,24.2,03.0,0000.0,0006.22,0003.55,0003.21
2022-02-23 14:49:00,,0827.6,5.00,0.00,22.4,21.9,00.0,31.3,24.0,03.1,0000.0,0006.45,0003.58,0003.21
2022-02-23 14:50:00,,0827.6,4.99,0.00,22.3,21.4,00.0,31.3,23.9,03.1,0000.0,0006.61,0003.60,0003.20
2022-02-23 14:51:00,,0827.6,5.00,0.00,22.2,21.1,00.0,31.3,23.7,03.1,0000.0,0006.65,0003.61,0003.20
2022-02-23 14:52:00,,0827.6,4.99,0.00,22.1,21.0,00.0,31.2,23.6,03.1,0000.0,0006.68,0003.62,0003.20
2022-02-23 14:53:00,,0827.7,5.01,0.00,22.2,21.8,00.0,31.2,23.8,03.1,0000.0,0006.49,0003.59,0003.20
2022-02-23 14:54:00,,0827.7,5.00,0.00,22.3,22.6,00.0,31.3,24.0,03.1,0000.0,0006.47,0003.59,0003.20
2022-02-23 14:55:00,,0827.7,5.00,0.00,22.4,23.1,00.0,31.3,24.3,03.1,0000.0,0006.62,0003.60,0003.20
2022-02-23 14:56:00,,0827.7,5.00,0.00,22.5,22.7,00.0,31.3,24.3,03.1,0000.0,0005.93,0003.59,0003.20
2022-02-23 14:57:00,,0827.7,5.00,0.00,22.4,22.1,00.0,31.3,24.1,03.1,0000.0,0005.56,0003.56,0003.20
2022-02-23 14:58:00,,0827.7,5.00,0.00,22.3,21.6,00.0,31.3,23.9,03.1,0000.0,0005.52,0003.54,0003.19
2022-02-23 14:59:00,,0827.7,5.00,0.00,22.2,21.2,00.0,31.3,23.7,03.1,0000.0,0005.43,0003.52,0003.18
